Location: Csohesd
(46.2500°N, 22.6167°E)
Time: 12:08:22
(UTC+00:00)

Cosmos 1844 Rocket - Pass Details

Date: 21 October 2021
Orbit: 826 x 843 km, 71.0° (Epoch: 06 December)

Event Time Altitude Azimuth Distance (km) Brightness Sun altitude
Rises 16:30:13 0° 340° (NNW) 3,377 6.0 -10.7°
Reaches altitude 10° 16:33:09 10° 354° (N) 2,439 5.1 -11.2°
Maximum altitude 16:37:38 24° 47° (NE) 1,652 3.8 -11.9°
Enters shadow 16:40:21 17° 86° (E) 1,980 4.0 -12.4°
